www.pogodaiklimat.ru

ПОГОДА в Attapeu

  • Прогноз погоды в Attapeu
  • Монитор погоды в Attapeu
  • Климат города

АРХИВ ПОГОДЫ в Attapeu

Время (UTC), дата Ветер
(напр.,м/с)
 
Видим.   Явления Облачность Т
(С)
Тd
(С)
f
(%)
Тe
(С)
Тes
(С)
Комфортность P
(гПа)
Po
(гПа)
Тmin
(С)
Tmax
(С)
R
(мм)
S
(см)
12 5.01 В 1 4000 м дымка {туман} 3/3 600 м
[Cu hum Ci fib]
+28.5 +20.2 61 +35 +35 очень
душно
1008.2 997.6 +34.5
00 6.01 штиль 0 10 км 3/3 600 м
[Cu hum Ci fib]
+22.0 +18.8 82 +27 +28 душно 1008.9 998.0 +21.8
03 6.01 С 2 18 км 3/3 600 м
[Cu hum Ci fib]
+29.5 +20.4 58 +36 +44 очень
душно
1010.6 999.8
06 6.01 С 2 18 км 3/3 600 м
[Cu hum Ci fib]
+32.0 +23.4 60 +43 +52 опасность
перегрева
1007.5 996.8
09 6.01 СВ 1 18 км 9/6 600 м
[Cu Sc Ac As]
+31.5 +23.6 63 +43 +43 опасность
перегрева
1000.4 994.8
12 6.01 В 1 3000 м дымка {туман} 9/6 600 м
[Cu Sc Ac As]
+29.5 +22.2 65 +38 +38 очень
душно
1007.4 996.8 +34.0
00 7.01 штиль 0 18 км 3/3 600 м
[Cu hum Ci fib]
+22.5 +21.0 91 +29 +30 очень
душно
1009.1 998.3 +22.0
03 7.01 штиль 0 18 км 3/3 600 м
[Cu hum Ci fib]
+27.5 +22.2 73 +36 +46 очень
душно
1009.3 998.6
06 7.01 С 1 18 км 3/3 600 м
[Cu hum Ci fib]
+33.5 +24.6 60 +47 +57 опасность
перегрева
1005.5 995.1
09 7.01 С 1 18 км 3/3 600 м
[Cu hum Ci fib]
+34.3 +25.2 59 +48 +50 опасность
перегрева
1002.8 992.4
12 7.01 штиль 0 4000 м дымка {туман} 5/4 600 м
[Cu med, cong Ci sp]
+30.0 +24.3 72 +42 +42 опасность
перегрева
1004.9 994.4 +34.3
00 8.01 штиль 0 10 км 6/4 600 м
[Cu med, cong Ac trans Ci sp]
+23.4 +22.0 92 +32 +32 очень
душно
1008.6 997.8 +23.0 1
03 8.01 С 1 15 км 3/3 600 м
[Cu hum Ci fib]
+29.0 +24.1 75 +40 +49 очень
душно
1009.7 999.1
06 8.01 В 1 18 км 5/4 600 м
[Cu med, cong Ci sp]
+34.0 +26.4 65 +51 +60 опасность
перегрева
1006.0 995.6
09 8.01 Ю 1 18 км 8/5 600 м
[Cu med, cong Ac lent Ci sp]
+33.8 +28.0 72 +55 +56 опасность
перегрева
1004.5 994.1
12 8.01 Ю 1 4000 м слабая морось {туман} 9/6 600 м
[Cu Sc Ac As]
+26.8 +23.5 82 +36 +36 очень
душно
1006.7 996.0 +34.5 3
00 9.01 10 км н/о +22.5 +21.0 91 +29 +30 очень
душно
1008.2 997.9 +22.0 0.4
03 9.01 Ю 1 18 км 3/3 600 м
[Cu hum Ci fib]
+28.0 +21.3 67 +35 +44 очень
душно
1009.6 998.9
06 9.01 В 1 18 км 3/3 600 м
[Cu hum Ci fib]
+32.9 +23.2 57 +43 +54 опасность
перегрева
1006.1 995.6
09 9.01 Ю 1 18 км 3/3 600 м
[Cu hum Ci fib]
+34.0 +24.9 59 +47 +49 опасность
перегрева
1003.9 993.5
12 9.01 Ю 1 3000 м дымка {туман} 10/8 600 м
[Cu Sc Ac As]
+29.5 +23.0 68 +39 +39 очень
душно
1007.0 996.4 +34.5
15 9.01 Ю 1 3000 м дымка {туман} 10/8 600 м
[Cu Sc Ac As]
+29.5 +23.0 68 +39 +39 очень
душно
1007.0 996.4 +34.5
00 10.01 штиль 0 10 км 3/3 600 м
[Cu hum Ci fib]
+23.5 +20.1 81 +29 +30 душно 1008.9 998.1 +23.2
03 10.01 В 1 18 км 1/1 600 м
[Cu hum]
+29.3 +20.6 59 +36 +47 очень
душно
1009.6 999.0
06 10.01 С 1 18 км 3/1 600 м
[Cu hum Ci fib]
+32.5 +23.9 61 +44 +58 опасность
перегрева
1007.0 996.5
09 10.01 С 1 15 км 8/5 600 м
[Cu med, cong Ac lent Ci sp]
+34.5 +26.2 62 +51 +52 опасность
перегрева
1004.8 994.4
12 10.01 ЮЗ 1 3000 м дымка {туман} 9/6 600 м
[Cu Sc Ac As]
+30.4 +24.7 72 +43 +43 опасность
перегрева
1007.3 996.7 +34.5
00 11.01 штиль 0 15 км 6/4 600 м
[Cu med, cong Ac trans Ci sp]
+22.5 +20.5 88 +29 +29 очень
душно
1009.4 998.5 +22.5
03 11.01 ЮЗ 1 15 км 9/6 600 м
[Cu Sc Ac As]
+28.0 +22.1 70 +36 +39 очень
душно
1010.8 1000.0
06 11.01 В 1 18 км 9/6 600 м
[Cu Sc Ac As]
+33.0 +23.7 58 +44 +47 опасность
перегрева
1007.5 996.8
09 11.01 Ю 1 18 км 9/6 600 м
[Cu Sc Ac As]
+34.0 +24.9 59 +47 +48 опасность
перегрева
1005.7 995.1
12 11.01 Ю 1 3000 м дымка {туман} 8/5 600 м
[Cu med, cong Ac lent Ci sp]
+29.5 +23.8 71 +40 +40 очень
душно
1007.7 997.0 +34.5
00 12.01 штиль 0 10 км 9/6 600 м
[Cu Sc Ac As]
+24.7 +21.4 82 +31 +32 очень
душно
1009.2 998.4 +23.0
03 12.01 В 1 10 км 9/6 600 м
[Cu Sc Ac As]
+28.8 +23.0 71 +39 +41 очень
душно
1009.7 999.1
06 12.01 Ю 1 15 км 8/5 600 м
[Cu med, cong Ac lent Ci sp]
+33.8 +24.2 57 +46 +51 опасность
перегрева
1005.7 995.3
09 12.01 В 1 15 км 9/6 600 м
[Cu Sc Ac As]
+33.3 +24.9 61 +46 +47 опасность
перегрева
1004.0 993.6
12 12.01 4000 м дымка {туман} н/о +30.0 +25.8 78 +45 +45 опасность
перегрева
1005.0 994.5 +33.5
00 13.01 СЗ 1 10 км дымка 5/4 600 м
[Cu med, cong Ci sp]
+23.8 +21.5 87 +30 +31 очень
душно
1008.0 997.2 +23.5
03 13.01 С 1 18 км 3/3 600 м
[Cu hum Ci fib]
+29.0 +20.8 61 +36 +45 очень
душно
1008.4 997.8
06 13.01 С 1 18 км 5/4 600 м
[Cu med, cong Ci sp]
+32.7 +25.5 66 +47 +56 опасность
перегрева
1005.0 994.6
09 13.01 С 1 18 км 5/4 600 м
[Cu med, cong Ci sp]
+34.9 +26.8 63 +52 +54 опасность
перегрева
1003.7 993.4
12 13.01 В 1 3000 м дымка {туман} 5/4 600 м
[Cu med, cong Ci sp]
+30.0 +23.6 69 +41 +41 опасность
перегрева
1005.8 995.2 +35.0
00 14.01 С 1 18 км 9/6 600 м
[Cu Sc Ac As]
+22.6 +19.3 82 +29 +29 очень
душно
1008.4 997.5 +22.3
03 14.01 С 1 18 км 9/6 600 м
[Cu Sc Ac As]
+26.0 +19.9 69 +32 +34 очень
душно
1009.9 999.1
06 14.01 С 1 18 км 9/6 600 м
[Cu Sc Ac As]
+31.0 +21.4 57 +39 +42 очень
душно
1008.0 997.3
09 14.01 С 1 18 км 10/8 600 м
[Cu Sc Ac As]
+31.5 +21.1 54 +39 +39 очень
душно
1007.5 996.8
12 14.01 СЗ 1 3000 м дымка {туман} 8/5 600 м
[Cu med, cong Ac lent Ci sp]
+28.5 +21.9 67 +37 +37 очень
душно
1008.4 997.7 +31.5
00 15.01 С 1 18 км 9/6 600 м
[Cu Sc Ac As]
+24.5 +19.0 71 +29 +29 душно 1010.8 1000.0 +24.0
03 15.01 С 1 15 км 9/6 600 м
[Cu Sc Ac As]
+26.9 +19.3 63 +32 +35 очень
душно
1011.4 1000.7
06 15.01 С 1 15 км 10/8 600 м
[Cu Sc Ac As]
+28.5 +21.0 64 +36 +37 очень
душно
1009.5 998.9
03 16.01 С 2 18 км 3/3 600 м
[Cu hum Ci fib]
+29.0 +19.0 55 +34 +42 очень
душно
1010.8 1000.1
06 16.01 В 1 18 км 5/4 600 м
[Cu med, cong Ci sp]
+23.5 +20.9 85 +29 +39 душно 1008.4 997.9
12 16.01 Ю 1 4000 м в посл. час дождь {туман} 9/6 600 м
[Cu Sc Ac As]
+27.3 +23.6 80 +37 +37 очень
душно
1009.5 998.8 +34.0 0.9
00 17.01 СЗ 1 10 км 9/6 600 м
[Cu Sc Ac As]
+23.3 +21.4 89 +31 +31 очень
душно
1011.7 1000.8 +23.0 1
03 17.01 В 1 18 км 6/4 600 м
[Cu med, cong Ac trans Ci sp]
+28.0 +21.4 67 +35 +42 очень
душно
1012.3 1001.6
06 17.01 В 1 18 км 6/4 600 м
[Cu med, cong Ac trans Ci sp]
+32.6 +21.0 51 +40 +48 очень
душно
1009.5 999.0

 

Местоположение метеостанции Attapeu (Лаос): широта 14.80 долгота 106.83 высота над уровнем моря 105 м.

В архиве по умолчанию представлена погода в Attapeu за последнюю неделю. Архивные данные за месяц целиком и за предыдущие месяцы, начиная с января 2011 года, Вы можете получить, выбрав интересующий диапазон дат из раскрывающегося списка и нажав кнопку "Ввод!".

Внимание! Время в таблицах - всемирное. Для получения местного времени необходимо прибавить поправку, которая в Attapeu равна 7 ч.

Ветер - указаны скорость ветра в м/с - средняя за 10 мин, порывы в срок и между сроками (в фигурных скобках) и направление, откуда дует ветер: С - северный, СВ - северо-восточный, В - восточный, ЮВ - юго-восточный, Ю - южный, ЮЗ - юго-западный, З - западный, СЗ - северо-западный.
Видимость - горизонтальная дальность видимости в метрах или километрах. При видимости от 1 до 10 км при отсутствии осадков обычно наблюдается дымка, при ухудшении видимости до 1 км и менее - туман. В сухую погоду видимость может ухудшаться дымом, пылью или мглою.
Явления - указаны атмосферные явления, наблюдавшиеся в срок или в последний час перед сроком; фигурными скобками обозначены явления, наблюдавшиеся между сроками (за 1-3 часа до срока); квадратными скобками обозначены град или гололедные отложения с указанием их диаметра в мм.
Облачность - указаны через наклонную черту общая и нижняя облачность в баллах и высота нижней границы облаков в метрах; квадратными скобками обозначены формы облаков: Ci - перистые, Cs - перисто-слоистые, Cc - перисто-кучевые, Ac - высококучевые, As - высокослоистые, Sc - слоисто-кучевые, Ns - слоисто-дождевые, Cu - кучевые, Cb - кучево-дождевые. Подробнее классификацию облаков см. в Атласе облаков (PDF).
T - Температура воздуха - температура, измеренная на высоте 2 м над землей.
Td - Температура точки росы - температура, при понижении до которой содержащийся в воздухе водяной пар достигнет насыщения.
f - Относительная влажность воздуха - влажноcть воздуха, измеренная на высоте 2 м над землей.
Te - Эффективная температура - температура, которую ощущает одетый по сезону человек в тени. Характеристика душности погоды. При расчете учитывается влияние влажности воздуха и скорости ветра на теплоощущения человека.
Tes - Эффективная температура на солнце - температура, которую ощущает человек, с поправкой на солнечный нагрев. Характеристика знойности погоды. Зависит от высоты солнца над горизонтом, облачности и скорости ветра. Ночью, в пасмурную погоду, а также при ветре 12 м/с и более поправка равна нулю.
P - Атмосферное давление - приведенное к уровню моря атмосферное давление.
Po - Атмосферное давление - измеренное на уровне метеостанции атмосферное давление.
Tmin - Минимальная температура - минимум температуры воздуха на высоте 2 м над землей.
Tmax - Максимальная температура - максимум температуры воздуха на высоте 2 м над землей.
R - Количество осадков - Количество выпавших осадков, мм. При наведении курсора мыши на число - период времени, за который выпало указанное количество осадков.
S - Снежный покров - Высота снежного покрова, см. При наведении курсора мыши на число - состояние снежного покрова и степень покрытия местности в баллах.